Torna al catalogo

USA 264 DEB

AttivoLEO
NORAD 40981·DEBRIS·🇺🇸 United States

Lanciato Oct 8, 2015 da Vandenberg Space Force Base

Loading…

Prossimi Passaggi (prossime 24 ore)

TLE

ObsoletoSource: Mike McCants

Epoca: Sep 7, 2026, 00:56 UTC

1 40981U 15058R   26250.03905619 0.00000000  00000-0  00000-0 0    02
2 40981  63.4366 225.5830 0222196 358.1850   1.8150 13.41000965    03

Traccia USA 264 DEB in tempo reale con AllMySat

Download on the App Store